星链-4635 (STARLINK-4635 )

导读

STARLINK-4635是美国太空探索技术公司(SpaceX)星链(Starlink)项目的卫星,于2022年10月5日发射升空,属于星链低轨互联网星座组网卫星。星链项目旨在为全球提供高速宽带互联网服务,该卫星入轨后,进一步扩充了星链星座的在轨规模,助力星座覆盖能力与服务能力的提升。

Basic Information
目录编号:
53966
目录名称:
STARLINK-4635
国际标识:
2022-125C
轨道中心:
EARTH
卫星名称:
星链-4635
卫星全名:
星链-4635 (STARLINK-4635 )
卫星状态:
在轨 (已飞行1430 天)
发射日期:
2022-10-05 UTC
国别 :
美国 (US)
星等 :
--
Orbit Information
数据来源 国际轨道数据
星历时间: 2026-09-04T09:52:53+0800
11小时前
查看轨道信息
半长轴: 6837.85km
偏心率: 0.0001171
轨道倾角: 53.161°
近地点辐角 95.603°
升交点赤经 138.476°
平近点角 264.510°
近地点: 458.912km
远地点: 460.514km
周期: 93.786分钟
每日圈数: 15.354067
Detailed Information
固有亮度:
5
最大亮度:
2.5
卫星平台:
Starlink v1.5
覆盖范围:
全球
运营商:
太空探索技术公司
运营商所在国:
美国
制造商(研发单位):
太空探索技术公司
制造商所在国:
美国
使用方式:
暂无
Satellite Introduction
星链(Starlink)计划是由太空探索技术公司(SpaceX)提出的一个巨型低轨卫星互联网星座项目,计划在2019年至2024年间在太空搭建由约1.2万颗卫星组成的“星链”网络,其中1584颗将部署在地球上空550千米处的近地轨道,并从2020年开始工作。该卫星仍在工作。
2D Orbit Map
3D Orbit Map
Orbit Altitude Analysis Chart
Orbit Inclination Analysis Chart
Orbit Comprehensive Analysis Chart
View Comprehensive Chart
Conjunction Data List
Event ID Objects TCA Miss Dist (km) Collision Risk Probability Collision Risk Index (CRI) Action
CDM_260906-132005-210305-396621
2026-09-06T
13:20:35+0000
2.784 km
极远距离
1.299754E-6 低风险 0.37
CDM_260905-064505-396606-616821
2026-09-05T
06:45:32+0000
2.930 km
极远距离
1.234742E-6 低风险 0.37
CDM_260905-090505-396605-853821
2026-09-05T
09:05:49+0000
2.942 km
极远距离
1.227901E-6 低风险 0.37
CDM_260903-044305-396606-159121
2026-09-03T
04:43:07+0000
2.949 km
极远距离
1.215479E-6 低风险 0.37
CDM_260905-140105-396606-350221
2026-09-05T
14:01:51+0000
2.784 km
极远距离
1.171444E-6 低风险 0.36
CDM_260905-022405-396606-626721
2026-09-05T
02:24:07+0000
2.566 km
极远距离
1.002822E-6 低风险 0.35
CDM_260905-225105-396606-919121
2026-09-05T
22:51:57+0000
2.537 km
极远距离
9.518184E-7 极低风险 0.35
CDM_260827-213505-396606-786223
2026-08-27T
21:35:06+0000
2.871 km
极远距离
7.345936E-7 极低风险 0.32